Weather in Taiynsha

Kazakhstan     53°51′09″N   69°46′57″E
В апреле 2022 года жителям России запретили посещать сайт meteo.paraplan.net по решению Генеральной прокуратуры. Аудитория сайта уменьшилась в 10 раз. Владельцы сайта не видят смысла в поддержке погодного сервера в таких условиях. Сайт будет закрыт в октябре.
temp.,
°C
wind,
m/s
gust,
m/s
humid.,
%
clouds,
%
prec.,
mm/h
press.,
hPa
HPBL,
m
3 october, mon
mon300:00+1sse35530 0.0 103561
03:000sse33590 0.0 103544
06:00−1sse22620 0.0 103519
09:00+2sse24550 0.0 1035117
12:00+8sse34360 0.0 10341006
15:00+10se33280 0.0 10331435
18:00+9ese33320 0.0 103371
21:00+4se35435 0.0 103465
4 october, tue
tue400:00+3s35505 0.0 103463
03:00+2ssw34565 0.0 103453
06:00+1ssw336087 0.0 103538
09:00+3sw34545 0.0 1036118
12:00+9sw333411 0.0 1036599
15:00+12wsw332523 0.0 1035927
18:00+11w22295 0.0 103425
21:00+10wsw2331100 0.0 103560
5 october, wed
wed500:00+9w3532100 0.0 1036117
03:00+7w453611 0.0 103671
06:00+6w47395 0.0 1036107
09:00+8w37376 0.0 1037191
12:00+13w45275 0.0 1036521
15:00+16w452691 0.0 1034881
18:00+15wnw3332100 0.0 103341
21:00+11wsw3335100 0.0 103322
6 october, thu
thu600:00+9wsw333497 0.0 103336
03:00+8wsw3533100 0.0 103379
06:00+6wsw3434100 0.0 103250
09:00+8wsw3530100 0.0 1031161
12:00+13sw352197 0.0 1029440
15:00+15sw3417100 0.0 1027822
18:00+15wnw1120100 0.0 102611
21:00+11ssw2222100 0.0 102615
7 october, fri
fri700:00+10ssw4525100 0.0 102563
03:00+10ssw4723100 0.0 1023114
06:00+9ssw4623100 0.0 102298
09:00+10ssw4823100 0.0 1020175
12:00+14ssw5917100 0.0 1018426
15:00+17sw71012100 0.0 1015929
18:00+16sw61114100 0.0 1014450
21:00+12w4723100 0.0 1014194